TimeCEST,TemperatureF,Dew PointF,Humidity,Sea Level PressureIn,VisibilityMPH,Wind Direction,Wind SpeedMPH,Gust SpeedMPH,PrecipitationIn,Events,Conditions,WindDirDegrees,DateUTC
12:00 AM,48.2,44.6,87,30.15,-9999.0,SW,8.1,-,N/A,,Clear,230,2013-04-29 22:00:00
12:30 AM,46.4,44.6,93,30.15,6.2,WSW,6.9,-,N/A,,Partly Cloudy,250,2013-04-29 22:30:00
1:00 AM,46.4,42.8,87,30.15,-9999.0,SW,5.8,-,N/A,,Clear,220,2013-04-29 23:00:00
1:30 AM,46.4,44.6,93,30.15,-9999.0,SSW,6.9,-,N/A,,Clear,210,2013-04-29 23:30:00
2:00 AM,48,45,86,30.18,12,SSW,6.7,,,,Partly Cloudy,210,2013-04-30 00:00:00
2:00 AM,48.2,44.6,87,30.15,6.2,SSW,6.9,-,N/A,,Partly Cloudy,200,2013-04-30 00:00:00
2:30 AM,48.2,44.6,87,30.15,-9999.0,SSW,8.1,-,N/A,,Clear,210,2013-04-30 00:30:00
3:00 AM,48.2,44.6,87,30.15,-9999.0,SW,4.6,-,N/A,,Clear,230,2013-04-30 01:00:00
3:30 AM,48.2,44.6,87,30.15,-9999.0,WSW,3.5,-,N/A,,Clear,240,2013-04-30 01:30:00
4:00 AM,48.2,46.4,93,30.15,-9999.0,SW,4.6,-,N/A,,Clear,230,2013-04-30 02:00:00
4:30 AM,48.2,46.4,93,30.15,-9999.0,SW,4.6,-,N/A,,Clear,230,2013-04-30 02:30:00
5:00 AM,48.2,44.6,87,30.12,-9999.0,West,2.3,-,N/A,,Clear,260,2013-04-30 03:00:00
5:30 AM,48.2,44.6,87,30.12,-9999.0,West,1.2,-,N/A,,Clear,270,2013-04-30 03:30:00
6:00 AM,48.2,44.6,87,30.12,-9999.0,Variable,2.3,-,N/A,,Clear,0,2013-04-30 04:00:00
6:30 AM,46.4,44.6,93,30.12,-9999.0,NNE,2.3,-,N/A,,Clear,20,2013-04-30 04:30:00
7:00 AM,48.2,44.6,87,30.15,-9999.0,NE,3.5,-,N/A,,Clear,50,2013-04-30 05:00:00
7:30 AM,50.0,46.4,87,30.15,-9999.0,NE,3.5,-,N/A,,Clear,40,2013-04-30 05:30:00
8:00 AM,50,45,76,30.17,7,North,4.5,,,,Clear,0,2013-04-30 06:00:00
8:00 AM,50.0,44.6,82,30.15,-9999.0,North,2.3,-,N/A,,Clear,10,2013-04-30 06:00:00
8:30 AM,51.8,46.4,82,30.15,-9999.0,NNE,4.6,-,N/A,,Clear,20,2013-04-30 06:30:00
9:00 AM,51.8,46.4,82,30.15,6.2,North,4.6,-,N/A,,Partly Cloudy,10,2013-04-30 07:00:00
9:30 AM,53.6,46.4,77,30.15,6.2,NE,6.9,-,N/A,,Scattered Clouds,40,2013-04-30 07:30:00
10:00 AM,55.4,48.2,77,30.12,5.6,NE,8.1,-,N/A,,Mostly Cloudy,50,2013-04-30 08:00:00
10:30 AM,55.4,48.2,77,30.15,5.0,NNE,6.9,-,N/A,,Mostly Cloudy,30,2013-04-30 08:30:00
11:00 AM,55.4,48.2,77,30.15,5.0,North,9.2,-,N/A,,Mostly Cloudy,10,2013-04-30 09:00:00
11:30 AM,55.4,48.2,77,30.12,5.6,North,10.4,-,N/A,,Mostly Cloudy,10,2013-04-30 09:30:00
12:00 PM,57.2,48.2,72,30.12,5.6,NE,10.4,-,N/A,,Mostly Cloudy,40,2013-04-30 10:00:00
12:30 PM,57.2,48.2,72,30.12,6.2,NE,10.4,-,N/A,,Mostly Cloudy,50,2013-04-30 10:30:00
1:00 PM,57.2,48.2,72,30.12,6.2,ENE,10.4,-,N/A,,Mostly Cloudy,70,2013-04-30 11:00:00
1:30 PM,57.2,48.2,72,30.09,6.2,ENE,12.7,-,N/A,,Mostly Cloudy,70,2013-04-30 11:30:00
2:00 PM,58,48,59,30.09,9,ENE,11.2,,,,Partly Cloudy,70,2013-04-30 12:00:00
2:00 PM,59.0,48.2,67,30.09,6.2,ENE,11.5,-,N/A,,Scattered Clouds,60,2013-04-30 12:00:00
2:30 PM,60.8,50.0,68,30.09,6.2,ENE,11.5,-,N/A,,Scattered Clouds,60,2013-04-30 12:30:00
3:00 PM,60.8,48.2,63,30.06,6.2,ENE,11.5,-,N/A,,Scattered Clouds,70,2013-04-30 13:00:00
3:30 PM,60.8,50.0,68,30.06,6.2,ENE,10.4,-,N/A,,Scattered Clouds,60,2013-04-30 13:30:00
4:00 PM,60.8,50.0,68,30.06,6.2,NE,9.2,-,N/A,,Scattered Clouds,50,2013-04-30 14:00:00
4:30 PM,59.0,50.0,72,30.06,6.2,NE,11.5,-,N/A,,Mostly Cloudy,40,2013-04-30 14:30:00
5:00 PM,59.0,48.2,67,30.06,6.2,NNE,11.5,-,N/A,,Mostly Cloudy,30,2013-04-30 15:00:00
5:30 PM,59.0,48.2,67,30.06,6.2,North,11.5,-,N/A,,Mostly Cloudy,360,2013-04-30 15:30:00
6:00 PM,57.2,48.2,72,30.06,6.2,North,13.8,-,N/A,,Overcast,360,2013-04-30 16:00:00
6:30 PM,55.4,46.4,72,30.06,6.2,North,13.8,-,N/A,,Overcast,350,2013-04-30 16:30:00
7:00 PM,53.6,44.6,72,30.06,6.2,North,12.7,-,N/A,,Overcast,360,2013-04-30 17:00:00
7:30 PM,53.6,44.6,72,30.06,6.2,North,12.7,-,N/A,,Overcast,360,2013-04-30 17:30:00
8:00 PM,53,43,61,30.10,7,North,15.7,,,,Overcast,0,2013-04-30 18:00:00
8:00 PM,53.6,42.8,67,30.09,6.2,North,11.5,-,N/A,,Overcast,350,2013-04-30 18:00:00
8:13 PM,51.8,44.6,76,30.09,6.2,NNW,13.8,-,N/A,Rain,Light Rain,340,2013-04-30 18:13:00
8:30 PM,50.0,44.6,82,30.09,6.2,NNW,15.0,-,N/A,Rain,Light Rain,340,2013-04-30 18:30:00
9:00 PM,50.0,44.6,82,30.12,5.6,NNW,15.0,-,N/A,Rain,Light Rain,330,2013-04-30 19:00:00
9:30 PM,48.2,46.4,93,30.12,4.3,NNW,16.1,-,N/A,Rain,Light Rain,340,2013-04-30 19:30:00
10:00 PM,48.2,46.4,93,30.12,3.7,North,13.8,-,N/A,Rain,Light Rain,350,2013-04-30 20:00:00
10:30 PM,46.4,44.6,93,30.12,3.7,North,12.7,-,N/A,Rain,Light Rain,350,2013-04-30 20:30:00
11:00 PM,46.4,44.6,93,30.15,3.7,North,15.0,-,N/A,Rain,Light Rain,350,2013-04-30 21:00:00
11:30 PM,46.4,44.6,93,30.15,4.3,North,12.7,-,N/A,Rain,Light Rain,350,2013-04-30 21:30:00